| time (UTC) | temp C | wind direction | speed KPH | gust KPH | rain 1hr cm | rain 24hr cm | rain mn cm | humidity % | barometer mb |
| 20260506163210 | 9 | 219 | 33.8 | 0.0 | 0.00 | 0.00 | 0.05 | 89 | 1006.7 |
| 20260506160210 | 9 | 221 | 29.0 | 0.0 | 0.00 | 0.00 | 0.03 | 89 | 1006.4 |
| 20260506153210 | 9 | 222 | 38.6 | 0.0 | 0.00 | 0.00 | 0.00 | 90 | 1006.3 |
| 20260506150210 | 11 | 178 | 62.8 | 0.0 | 0.00 | 0.00 | 0.00 | 86 | 1005.1 |
| 20260506143210 | 14 | 190 | 40.2 | 0.0 | 0.00 | 0.00 | 0.00 | 73 | 1004.4 |
| 20260506140210 | 15 | 227 | 24.1 | 0.0 | 0.00 | 0.00 | 0.00 | 66 | 1004.0 |
| 20260506133211 | 15 | 198 | 11.3 | 0.0 | 0.00 | 0.00 | 0.00 | 68 | 1004.3 |
| 20260506130211 | 15 | 271 | 9.7 | 0.0 | 0.00 | 0.00 | 0.00 | 67 | 1004.6 |
| 20260506123210 | 16 | 258 | 9.7 | 0.0 | 0.00 | 0.00 | 0.00 | 66 | 1004.4 |
| 20260506120210 | 15 | 206 | 8.0 | 0.0 | 0.00 | 0.00 | 0.00 | 67 | 1004.3 |
| 20260506113217 | 15 | 213 | 6.4 | 0.0 | 0.00 | 0.00 | 0.00 | 69 | 1004.4 |
| 20260506110210 | 15 | 328 | 6.4 | 0.0 | 0.00 | 0.00 | 0.00 | 69 | 1004.6 |
| 20260506100213 | 13 | 306 | 8.0 | 0.0 | 0.00 | 0.00 | 0.00 | 77 | 1004.6 |
| 20260506093211 | 13 | 289 | 0.0 | 0.0 | 0.00 | 0.00 | 0.00 | 75 | 1005.1 |
| 20260506090211 | 13 | 264 | 6.4 | 0.0 | 0.00 | 0.00 | 0.00 | 75 | 1005.1 |
| 20260506083211 | 12 | 254 | 4.8 | 0.0 | 0.00 | 0.00 | 0.00 | 79 | 1005.0 |
| 20260506080212 | 12 | 231 | 9.7 | 0.0 | 0.00 | 0.00 | 0.00 | 81 | 1004.9 |
| 20260506073211 | 12 | 146 | 3.2 | 0.0 | 0.00 | 0.00 | 0.00 | 83 | 1005.2 |
| 20260506070212 | 11 | 80 | 12.9 | 0.0 | 0.00 | 0.00 | 0.00 | 86 | 1005.4 |
| 20260506060210 | 10 | 138 | 1.6 | 0.0 | 0.00 | 0.00 | 0.00 | 90 | 1005.1 |
| 20260506050211 | 8 | 138 | 0.0 | 0.0 | 0.00 | 0.00 | 0.00 | 90 | 1005.4 |
| 20260506043211 | 8 | 138 | 6.4 | 0.0 | 0.00 | 0.00 | 0.00 | 90 | 1005.6 |
| 20260506040211 | 9 | 138 | 0.0 | 0.0 | 0.00 | 0.00 | 0.00 | 88 | 1005.8 |
| 20260506033211 | 9 | 138 | 3.2 | 0.0 | 0.00 | 0.00 | 0.00 | 88 | 1006.2 |
| 20260506030212 | 10 | 138 | 0.0 | 0.0 | 0.00 | 0.00 | 0.00 | 87 | 1006.4 |
| 20260506023211 | 10 | 174 | 3.2 | 0.0 | 0.00 | 0.00 | 0.00 | 86 | 1006.5 |
| 20260506020212 | 10 | 160 | 11.3 | 0.0 | 0.00 | 0.00 | 0.00 | 86 | 1006.6 |
| 20260506013211 | 10 | 163 | 8.0 | 0.0 | 0.00 | 0.00 | 0.00 | 87 | 1006.8 |
| 20260506010212 | 10 | 156 | 12.9 | 0.0 | 0.00 | 0.00 | 0.00 | 87 | 1007.3 |
| 20260506003209 | 11 | 156 | 9.7 | 0.0 | 0.00 | 0.00 | 0.00 | 85 | 1007.1 |
| 20260506000211 | 11 | 196 | 8.0 | 0.0 | 0.00 | 0.00 | 0.00 | 85 | 1007.2 |
| 20260505233209 | 11 | 188 | 12.9 | 0.0 | 0.00 | 0.00 | 0.00 | 85 | 1007.5 |
| 20260505230209 | 10 | 159 | 14.5 | 0.0 | 0.00 | 0.00 | 0.00 | 85 | 1007.6 |
| 20260505223210 | 11 | 208 | 12.9 | 0.0 | 0.00 | 0.00 | 0.00 | 83 | 1007.7 |
| 20260505220209 | 11 | 180 | 16.1 | 0.0 | 0.00 | 0.00 | 0.00 | 82 | 1007.7 |
| 20260505213211 | 11 | 194 | 19.3 | 0.0 | 0.00 | 0.00 | 0.00 | 80 | 1007.8 |
| 20260505210215 | 12 | 202 | 29.0 | 0.0 | 0.00 | 0.00 | 0.00 | 79 | 1007.9 |
| 20260505203209 | 12 | 169 | 32.2 | 0.0 | 0.00 | 0.00 | 0.00 | 78 | 1007.7 |
| 20260505200210 | 12 | 176 | 25.7 | 0.0 | 0.00 | 0.00 | 0.00 | 76 | 1007.8 |
| 20260505193209 | 13 | 191 | 29.0 | 0.0 | 0.00 | 0.00 | 0.00 | 76 | 1007.7 |
| 20260505190215 | 13 | 192 | 17.7 | 0.0 | 0.00 | 0.00 | 0.00 | 77 | 1007.3 |
| 20260505183212 | 15 | 219 | 24.1 | 0.0 | 0.00 | 0.00 | 0.00 | 73 | 1006.6 |
| 20260505180211 | 15 | 229 | 22.5 | 0.0 | 0.00 | 0.00 | 0.00 | 67 | 1006.4 |
| 20260505173210 | 16 | 171 | 29.0 | 0.0 | 0.00 | 0.00 | 0.00 | 60 | 1006.1 |
| 20260505170210 | 16 | 217 | 14.5 | 0.0 | 0.00 | 0.00 | 0.00 | 62 | 1005.9 |